Regional Weather Roundup
Issued by NWS Portland, ME

Home | Current Version | Previous Version | Text Only | Print | Product List | Glossary On
Versions: 1 2 3 4 5 6 7 8 9 10 11 12 13 14 15 16 17 18 19 20 21 22 23 24 25 26 27 28 29 30 31 32 33 34 35 36 37 38 39 40 41 42 43 44 45 46 47 48 49 50
000
ASUS41 KGYX 241810
RWRGYX
WEATHER ROUNDUP FOR MAINE AND NEW HAMPSHIRE
NATIONAL WEATHER SERVICE GRAY ME
200 PM EDT WED MAY 24 2017

MEZ002-005-006-010-012-015-018-020-021-024-026-027-029-241900-
MAINE

CITY           SKY/WX    TMP DP  RH WIND       PRES   REMARKS
PORTLAND       CLOUDY    65  48  54 E7        29.81S
6HR MIN TEMP:  54; 6HR MAX TEMP:  68;

SANFORD        MOSUNNY   66  50  56 CALM      29.81R
BAR HARBOR     PTSUNNY   68  49  50 VRB5      29.79F
WISCASSET      CLOUDY    72  48  42 VRB6      29.80F
6HR MIN TEMP:  53; 6HR MAX TEMP:  73;

ROCKLAND       CLOUDY    68  50  52 E6        29.81S
FRYEBURG       CLOUDY    71  47  42 VRB3      29.79F
6HR MIN TEMP:  53; 6HR MAX TEMP:  72;

LEWISTONAUBURN CLOUDY    72  50  45 E6        29.79F
AUGUSTA        CLOUDY    70  46  42 VRB3      29.79F
6HR MIN TEMP:  54; 6HR MAX TEMP:  71;

WATERVILLE     CLOUDY    70  47  43 S3        29.76F
BANGOR         PTSUNNY   73  46  38 NE6       29.79F
6HR MIN TEMP:  53; 6HR MAX TEMP:  73;

GREENVILLE       N/A     66  41  40 MISG      29.79F
6HR MIN TEMP:  59; 6HR MAX TEMP:  68;

MILLINOCKET    MOSUNNY   72  43  35 CALM      29.79F
6HR MIN TEMP:  56; 6HR MAX TEMP:  72;

HOULTON        CLOUDY    69  45  41 CALM      29.78S
6HR MIN TEMP:  57; 6HR MAX TEMP:  70;

PRESQUE ISLE   CLOUDY    68  45  43 VRB6      29.81S
6HR MIN TEMP:  55; 6HR MAX TEMP:  69;

FRENCHVILLE    CLOUDY    64  44  48 VRB7      29.81S
6HR MIN TEMP:  53; 6HR MAX TEMP:  65;

CARIBOU        CLOUDY    69  45  41 CALM      29.79F
6HR MIN TEMP:  59; 6HR MAX TEMP:  69;

$$

NHZ002-005-008-009-011-012-014-241900-
NEW HAMPSHIRE

CITY           SKY/WX    TMP DP  RH WIND       PRES   REMARKS
PORTSMOUTH     CLOUDY    63  52  68 E8        29.80R
ROCHESTER      CLOUDY    69  48  47 E7        29.79S
6HR MIN TEMP:  55; 6HR MAX TEMP:  71;

NASHUA         MOSUNNY   70  51  51 SE8       29.80S
MANCHESTER     CLOUDY    70  50  49 S8        29.78S
6HR MIN TEMP:  56; 6HR MAX TEMP:  71;

CONCORD        CLOUDY    70  50  49 SE5       29.79S
6HR MIN TEMP:  53; 6HR MAX TEMP:  72;

LACONIA        CLOUDY    69  50  50 E10       29.79F
BERLIN         CLOUDY    70  47  43 S5        29.79F
6HR MIN TEMP:  54; 6HR MAX TEMP:  70;

WHITEFIELD     CLOUDY    68  48  48 S6        29.79F
6HR MIN TEMP:  53; 6HR MAX TEMP:  70;

JAFFREY        CLOUDY    67  50  54 SE7       29.80F
6HR MIN TEMP:  54; 6HR MAX TEMP:  68;

KEENE          CLOUDY    70  49  47 VRB6      29.78F
LEBANON        PTSUNNY   73  46  38 VRB3      29.76F
6HR MIN TEMP:  53; 6HR MAX TEMP:  74;

MT WASHINGTON  CLOUDY    45  39  81 W7          N/A
6HR MIN TEMP:  39; 6HR MAX TEMP:  44;

$$

VTZ005-007-008-241900-
VERMONT

CITY           SKY/WX    TMP DP  RH WIND       PRES   REMARKS
ST JOHNSBURY     N/A     73  46  38 MISG      29.75F
MONTPELIER     CLOUDY    69  50  50 S10       29.81F
BURLINGTON     PTSUNNY   76  48  37 VRB6      29.74F
$$

MAZ007-012-024-CTZ003-RIZ002-NYZ038-NYZ072-241900-
SOUTHERN NEW ENGLAND AND NY

CITY           SKY/WX    TMP DP  RH WIND       PRES   REMARKS
BOSTON         CLOUDY    62  54  74 E5        29.82R
WORCESTER      CLOUDY    63  48  58 E9        29.80F
NANTUCKET      CLOUDY    58  52  80 E17       29.76R
PROVIDENCE     CLOUDY    66  52  60 E7        29.79S
HARTFORD       CLOUDY    72  49  44 E8        29.77F
ALBANY         CLOUDY    74  51  44 S8        29.75F
NEW YORK CITY  CLOUDY    67  51  56 NE13G23   29.75F
$$

ANZ081-ANZ082-ANZ150-NHZ014-MEZ023>029-241900-
COASTAL MARINE OBSERVATIONS

STATION/POSITION TIME  TEMP    WIND        PRES    WAVE
                       AIR SEA DIR/SP/G            HT/PER
                 (UTC) (F)     (DEG/KT/KT) (MB)    (FT/S)
MOUNT DESERT ROC 1800   49                 1009.4F
ISLE OF SHOALS   1700   54      60/  6/  6 1009.1F
JEFFREYS LEDGE   1736      50                N/A     3/ 7
CASHES LEDGE BUO 1750   56 50              1009.7R   3/ 7
GEORGES BANK BUO 1650   47 45              1007.2    5/ 7
$$

.............KEY..............
   WCI - WIND CHILL
   TC  - TEMPERATURE IN CELSIUS
   VSB - VISIBILITY IN MILES
   HX  - HEAT INDEX
   FAIR- INDICATES FEW OR NO CLOUDS BELOW 12,000 FT, WITH NO
         SIGNIFICANT WEATHER AND/OR OBSTRUCTIONS TO VISIBILITY.






USA.gov is the U.S. government's official web portal to all federal, state and local government web resources and services.